Location: Unspecified
(50.7365°N, 0.0000°E)
Time: 06:44:41
(UTC+00:00)

CZ-4C R/B - Visible Passes

Search period start: 04 April 2026 00:00
Search period end: 14 April 2026 00:00
Orbit: 756 x 882 km, 98.9° (Epoch: 29 March)

Date Brightness Start Highest point End Pass type
(mag) Time Alt. Az. Time Alt. Az. Time Alt. Az.
4 Apr ? 20:05:14 10° S 20:10:06 47° W 20:14:58 10° NNW visible
5 Apr ? 19:43:53 10° S 19:48:55 70° WSW 19:53:57 10° NNW visible
5 Apr ? 21:29:01 10° W 21:29:56 10° W 21:30:50 10° WNW visible
6 Apr ? 19:22:45 10° SSE 19:27:48 80° ENE 19:32:50 10° NNW visible
6 Apr ? 21:05:23 10° SW 21:08:29 16° W 21:11:35 10° NW visible
7 Apr ? 20:43:05 10° SSW 20:47:07 24° W 20:51:11 10° NW visible
8 Apr ? 20:21:14 10° SSW 20:25:49 35° W 20:30:26 10° NNW visible
9 Apr ? 19:59:41 10° S 20:04:35 52° W 20:09:31 10° NNW visible
10 Apr ? 19:38:23 10° SSE 19:43:25 78° WSW 19:48:29 10° NNW visible
10 Apr ? 21:22:30 10° WSW 21:24:21 12° W 21:26:13 10° WNW visible
11 Apr ? 19:17:19 10° SSE 19:22:18 72° ENE 19:27:21 10° NNW visible
11 Apr ? 20:59:32 10° SW 21:02:56 18° W 21:06:21 10° NW visible
12 Apr ? 20:37:22 10° SSW 20:41:35 27° W 20:45:49 10° NW visible
13 Apr ? 20:15:36 10° SSW 20:20:17 39° W 20:25:02 10° NNW visible
